Regional Weather Roundup
Issued by NWS Grand Forks, ND

Home | Current Version | Previous Version | Text Only | Print | Product List | Glossary Off
Versions: 1 2 3 4 5 6 7 8 9 10 11 12 13 14 15 16 17 18 19 20 21 22 23 24 25 26 27 28 29 30 31 32 33 34 35 36 37 38 39 40 41 42 43 44 45 46 47 48 49 50

000
ASUS43 KFGF 221910
RWRFGF
PRAIRIE TO PINES  WEATHER ROUNDUP
NATIONAL WEATHER SERVICE EASTERN NORTH DAKOTA/GRAND FORKS ND
100 PM CST THU FEB 22 2018

 **SATELLITE DATA USED TO AUGMENT SKY COVER AT AUTOMATED STATIONS**
 *****  WEATHER ACROSS EASTERN NORTH DAKOTA  *****

CITY           SKY/WX    TMP DP  RH WIND       PRES   REMARKS
GRAND FORKS    FAIR      13   7  77 S12       30.40F WCI  -1
GRAND FRKS AFB FAIR      15   5  65 S8        30.38F WCI   4
GRAND FRKS NWS   N/A     13   8  80 S16       30.38F WCI  -3
DEVILS LAKE    FAIR      11   4  73 SW6       30.31F WCI   1
FARGO          FAIR      20  12  71 S18       30.41F WCI   5
WAHPETON ARPT  CLOUDY    21  12  68 SE18      30.43F WCI   6
$$

 ***** WEATHER ACROSS CENTRAL AND WESTERN NORTH DAKOTA  *****

CITY           SKY/WX    TMP DP  RH WIND       PRES   REMARKS
BISMARCK       FAIR      13   4  67 S5        30.29F WCI   5
MINOT          FAIR      18   2  49 NW3       30.24F
JAMESTOWN      FAIR      20  11  68 S9        30.30F WCI   9
MINOT AFB      FAIR      13   0  55 W6        30.24F WCI   4
GARRISON         N/A      9  -2  61 NW3       30.24F
WILLISTON      FAIR       6  -4  63 SW6       30.26F WCI  -4
DICKINSON      FAIR      14   1  56 NW9       30.15F WCI   2
HETTINGER      FAIR      10   2  69 CALM      30.17F
$$

 *****  OTHER AIRPORT OBSERVATIONS IN OUR AREA  *****

CITY           SKY/WX    TMP DP  RH WIND       PRES   REMARKS
WALHALLA       FAIR      18   7  62 S8        30.34F WCI   7
GRAFTON AIRPOR FAIR      12   5  73 S12       30.41F WCI  -2
VALLEY CITY AR FAIR      18  14  86 S14       30.36F WCI   4
CANDO          FAIR      14   5  67 S7        30.31F WCI   4
CAVALIER APRT    N/A     10   5  79 S12       30.35F WCI  -4
GWINNER          N/A     23  14  68 SE10      30.37F WCI  12
SHEYENNE NWR     N/A     23  12  63 S14       29.95S WCI  11
ROLLA          FAIR      16   1  53 SW9       30.24F WCI   4
 ***** THE ABOVE OBSERVATIONS ARE NON NWS ARE NOT QUALITY
       CONTROLLED AND MAY MIS-REPORT RAIN FOR SNOW...
$$

  *****  WEATHER ACROSS NORTHERN MINNESOTA  *****

CITY           SKY/WX    TMP DP  RH WIND       PRES   REMARKS
FLAG ISLAND    FAIR      10   3  72 SE9       30.38F WCI  -2
WARROAD        FAIR      21   9  58 SW14G20   30.40F WCI   8
ROSEAU         FAIR      19  10  68 S14       30.39F WCI   6
HALLOCK        FAIR      12   7  79 S18       30.39F WCI  -5
THF RVR FALLS  FAIR      18  10  71 SW16G22   30.40F WCI   3
BAUDETTE       FAIR      21   1  41 S9        30.40F WCI  11
WASKISH        FAIR      21   5  49 W3        30.42F
CROOKSTON      FAIR      18  10  73 S18       30.42F HAZE    WCI   2
STEPHEN NDAWN    N/A     12   7  79 S15         N/A  WCI  -4
GREENBUSH NDAW   N/A     16   9  73 S18         N/A  WCI  -1
$$
  *****  WEATHER ACROSS CENTRAL AND WEST MINNESOTA  *****

CITY           SKY/WX    TMP DP  RH WIND       PRES   REMARKS
FOSSTON        FAIR      23   7  50 S14       30.40F WCI  11
BEMIDJI        FAIR      24   1  37 S9        30.40F WCI  14
PARK RAPIDS    CLOUDY    21   4  47 S15       30.41F WCI   8
ELBOW LAKE     CLOUDY    20  11  70 SE14      30.43F WCI   6
WADENA         CLOUDY    19   5  53 SE8       30.42F WCI   9
DETROIT LAKES  FAIR      23  10  58 S12       30.40F WCI  12
MOORHEAD       FAIR      19  10  68 S17G25    30.42F WCI   4
FERGUS FALLS   CLOUDY    19  10  68 S16       30.43F WCI   5
MORRIS MN      PTSUNNY   21  14  73 SE12      30.42F WCI   9
STAPLES        CLOUDY    21   3  45 S10       30.44F WCI  10
$$
  *****  WEATHER ELSEWHERE ACROSS MINNESOTA  *****

CITY           SKY/WX    TMP DP  RH WIND       PRES   REMARKS
DULUTH         FAIR      20   4  50 S3        30.48F
INTRNTL FALLS  FAIR      23   0  36 SW8       30.43F WCI  14
ELY            FAIR      27   0  31 S9        30.45F WCI  17
CLOQUET        CLOUDY    19   0  42 SE3       30.48F
WHEATON        CLOUDY    19  12  73 SE10      30.44F WCI   8
BRAINERD       CLOUDY    21   3  45 SE6       30.46F WCI  13
HIBBING        FAIR      23   1  38 S7        30.45F WCI  15
ALEXANDRIA     CLOUDY    21  11  65 SE7       30.43F WCI  12
SAINT CLOUD    CLOUDY    21  10  62 SE9       30.47F WCI  11
MINNEAPOLIS    CLOUDY    26  14  60 SE9       30.49F WCI  17
$$

  *****  WEATHER ACROSS SOUTH DAKOTA  *****

CITY           SKY/WX    TMP DP  RH WIND       PRES   REMARKS
SIOUX FALLS    LGT SNOW  23  18  81 E7        30.34F WCI  15
BROOKINGS      CLOUDY    24  19  81 SE8       30.35F WCI  15
WATERTOWN      CLOUDY    24  19  81 SE9       30.33F WCI  14
HURON          LGT SNOW  24  19  81 SE12      30.34F WCI  13
SISSETON         N/A     20  14  77 SE14      30.39F WCI   7
ABERDEEN       CLOUDY    24  17  74 S10       30.36F WCI  14
MITCHELL       LGT SNOW  22  19  89 SE7       30.35F VSB 3/4 WCI  13
PIERRE         CLOUDY    20  16  84 SE12      30.23F WCI   8
MOBRIDGE       FAIR      15   8  73 S8        30.24F WCI   4
RAPID CITY     FAIR      10   4  76 E3        30.09F
$$

  *****  SOME WEATHER IN NEARBY STATES *****

CITY           SKY/WX    TMP DP  RH WIND       PRES   REMARKS
GLASGOW MT     FAIR      -9 -16  71 NW12      30.25S WCI -28
GREAT FALLS MT CLOUDY     8   0  69 W7        30.17S WCI  -3
CHEYENNE WY    PTSUNNY   23  14  68 N9        29.89F WCI  13
SCOTTSBLUFF NE CLOUDY    22  19  89 SE8       30.03F FOG     WCI  12
OMAHA NE       FRZ DRZL  28  24  85 SE10      30.33F WCI  19
DES MOINES IA  FRZ RAIN  29  27  92 E10       30.36F FOG     WCI  20
DAVENPORT IA   CLOUDY    37  28  70 E15       30.42F
CHICAGO IL     PTSUNNY   39  29  67 NE15      30.48F
EAU CLAIRE WI  CLOUDY    27  12  53 E9        30.50F WCI  18
LA CROSSE WI   CLOUDY    29  18  63 E9        30.50F WCI  20
$$

  *****  SOME NATIONAL WEATHER *****

CITY           SKY/WX    TMP DP  RH WIND       PRES   REMARKS
LA GUARDIA NY  LGT RAIN  43  31  62 NE15      30.55S
RALEIGH NC     PTSUNNY   75  62  64 W15G21    30.42F
ATLANTA GA     FAIR      78  64  61 SE8       30.41F
NEW ORLEANS LA FAIR      83  68  60 SE17G23   30.29F
OKLAHOMA CITY  TSTM      31  30  96 NW8       30.24R FOG     WCI  23
ALBUQUERQUE NM PTSUNNY   40  30  67 CALM      30.08F
SALT LAKE CITY PTSUNNY   33  16  49 S7        29.97F
LOS ANGELES CA FAIR      56  39  53 W9        30.25S
BOISE ID       PTSUNNY   27  20  75 NW6       30.02S WCI  20
SEATTLE WA     FAIR      33  23  66 N12       30.32R WCI  24
$$

*** WEATHER ACROSS MANITOBA...SASKATCHEWAN AND ONTARIO ***
                ***ONTARIO***

CITY           SKY/WX    TMP DP  RH WIND       PRES   REMARKS
GERALDTON      SUNNY     23  -4  30 W12G20    30.51F WCI  12
THUNDER BAY    MOSUNNY   18   7  62 E10       30.57F WCI   6
SIOUX LOOKOUT  MOSUNNY   21   1  42 S12G18    30.38F WCI   9
TORONTO        PTSUNNY   34  23  64 E8        30.65F
BIG TROUT LK   SUNNY     16   1  53 SW15G23   30.18F WCI   1
PICKLE LAKE    MOSUNNY   18   1  49 SW15G24   30.35F WCI   3
DRYDEN         SUNNY     19   1  45 S14G23    30.37F WCI   6
KENORA         NOT AVBL
$$
                *** MANITOBA***

CITY           SKY/WX    TMP DP  RH WIND       PRES   REMARKS
BRANDON        MOSUNNY   10   0  61 W6        30.27F WCI   1
DAUPHIN        SUNNY     12   1  62 SE3       30.21F
ISLAND LAKE    MOSUNNY   16   0  48 SW18G30   30.07F WCI  -1
PILOT MOUND      N/A     12   3  67 S8          N/A  WCI   1
THE PAS        MOSUNNY   12   0  57 W16       30.03F WCI  -4
THOMPSON       PTSUNNY   10   1  67 SW15G22   29.86F WCI  -6
WINNIPEG       SUNNY     12   3  67 S17       30.35F WCI  -5
LYNN LAKE      PTSUNNY    1  -9  60 NW15G25   29.86R WCI -18
CHURCHILL      MOSUNNY    5  -4  66 W21G28    29.67S WCI -16
$$
                ***SASKATCHEWAN***

CITY           SKY/WX    TMP DP  RH WIND       PRES   REMARKS
ESTEVAN        MOSUNNY    9  -4  56 SW8       30.22F WCI  -4
KINDERSLEY     PTSUNNY   14   7  73 W8        30.18S WCI   3
LLOYDMINSTER   MOSUNNY   16   9  73 NW8       30.15R WCI   5
PRINCE ALBERT  PTSUNNY   14   3  62 W12       30.14S WCI   0
REGINA         PTSUNNY    5  -4  66 SW9       30.20S WCI  -9
YORKTON        SUNNY      9   0  66 W8        30.16S WCI  -4
N. BATTLEFORD  CLOUDY    12   5  73 NW9       30.18S WCI   0
LA RONGE       MOSUNNY   18   7  62 W18G26    30.03R WCI   2
SASKATOON      FLURRIES   9   1  72 SW10      30.19S WCI  -6
SWIFT CURRENT  FLURRIES   9   0  66 W16       30.14S WCI  -9
$$
NOTE: THESE ARE AUTOMATED STATIONS WITH LIMITED QUALITY CONTROL
      "FAIR" INDICATES FEW OR NO CLOUDS BELOW 12,000 FEET WITH NO
      SIGNIFICANT WEATHER AND/OR OBSTRUCTIONS TO VISIBILITY.
      SKY/WX - SKY CONDITION AND SIGNIFICANT WEATHER.
      TMP - AIR TEMPERATURE.    DP   - DEWPOINT TEMPERATURE.
      RH  - RELATIVE HUMIDITY.  PRES - PRESSURE.
      HX  - HEAT INDEX.         WCI  - WIND CHILL INDEX.
$




USA.gov is the U.S. government's official web portal to all federal, state and local government web resources and services.